Station Historical Data
Daily Summary for February 18, 2017 Units:  English    Metric   Both
« Previous Day
Next Day »
Daily Weekly Monthly Yearly Custom
  High: Low: Average:
Temperature: 47.4 °F 40.3 °F 44.9 °F
Dew Point: 45.6 °F 38.6 °F 43 °F
Humidity: 94 % 93 % 93 %
Wind Speed: 18.0 mph 0.0 mph 5.6 mph
Wind Gust: 20.0 mph - -
Wind:- - South
Pressure: 29.78 in 29.40 in -
Precipitation: 0.00 in    
Historical Graphs
 
 
Tabular Data for February 18, 2017
Time Temperature Dew Point Pressure Wind Wind Speed Wind Gust Humidity Rainfall Rate (Hourly) solar
00:01 44.6 °F 42.7 °F 29.40 in SSE 4.0 mph 9.0 mph 93 % 0.00 in 0.00 W/m2
00:06 44.6 °F 42.7 °F 29.40 in South 2.0 mph 10.0 mph 93 % 0.00 in 0.00 W/m2
00:11 44.7 °F 42.8 °F 29.40 in SSE 8.0 mph 8.0 mph 93 % 0.00 in 0.00 W/m2
00:16 44.7 °F 42.8 °F 29.41 in SSE 10.0 mph 13.0 mph 93 % 0.00 in 0.00 W/m2
00:22 44.7 °F 42.8 °F 29.41 in SSE 9.0 mph 10.0 mph 93 % 0.19 in 0.00 W/m2
00:27 44.7 °F 42.8 °F 29.41 in SE 6.0 mph 8.0 mph 93 % 0.13 in 0.00 W/m2
00:32 44.7 °F 42.8 °F 29.41 in SSE 7.0 mph 9.0 mph 93 % 0.10 in 0.00 W/m2
00:37 44.8 °F 42.9 °F 29.41 in Calm   7.0 mph 93 % 0.06 in 0.00 W/m2
00:42 44.7 °F 42.8 °F 29.41 in SSE 7.0 mph 9.0 mph 93 % 0.06 in 0.00 W/m2
00:47 44.7 °F 42.8 °F 29.41 in SE 4.0 mph 8.0 mph 93 % 0.06 in 0.00 W/m2
00:52 44.8 °F 42.9 °F 29.42 in SE 4.0 mph 9.0 mph 93 % 0.10 in 0.00 W/m2
00:57 44.8 °F 42.9 °F 29.42 in SE 7.0 mph 9.0 mph 93 % 0.10 in 0.00 W/m2
01:02 44.8 °F 42.9 °F 29.42 in SSE 9.0 mph 14.0 mph 93 % 0.09 in 0.00 W/m2
01:07 44.7 °F 42.8 °F 29.42 in SE 10.0 mph 18.0 mph 93 % 0.06 in 0.00 W/m2
01:12 44.7 °F 42.8 °F 29.42 in SE 11.0 mph 13.0 mph 93 % 0.04 in 0.00 W/m2
01:17 44.7 °F 42.8 °F 29.42 in SE 8.0 mph 18.0 mph 93 % 0.04 in 0.00 W/m2
01:22 44.8 °F 42.9 °F 29.43 in SE 6.0 mph 14.0 mph 93 % 0.04 in 0.00 W/m2
01:27 44.8 °F 42.9 °F 29.43 in SSE 10.0 mph 17.0 mph 93 % 0.04 in 0.00 W/m2
01:32 44.7 °F 42.8 °F 29.43 in SE 11.0 mph 13.0 mph 93 % 0.00 in 0.00 W/m2
01:37 44.7 °F 42.8 °F 29.43 in SE 6.0 mph 15.0 mph 93 % 0.00 in 0.00 W/m2
01:42 44.7 °F 42.8 °F 29.43 in SSE 7.0 mph 15.0 mph 93 % 0.00 in 0.00 W/m2
01:47 44.7 °F 42.8 °F 29.43 in South 11.0 mph 14.0 mph 93 % 0.00 in 0.00 W/m2
01:52 44.7 °F 42.8 °F 29.44 in SSE 2.0 mph 11.0 mph 93 % 0.00 in 0.00 W/m2
01:57 44.8 °F 42.9 °F 29.44 in South 2.0 mph 20.0 mph 93 % 0.08 in 0.00 W/m2
02:02 44.8 °F 42.9 °F 29.44 in South 10.0 mph 20.0 mph 93 % 0.08 in 0.00 W/m2
02:07 44.7 °F 42.8 °F 29.44 in SSE 8.0 mph 17.0 mph 93 % 0.08 in 0.00 W/m2
02:12 44.7 °F 42.8 °F 29.45 in SSW 11.0 mph 12.0 mph 93 % 0.07 in 0.00 W/m2
02:17 44.6 °F 42.7 °F 29.45 in SSE 12.0 mph 13.0 mph 93 % 0.07 in 0.00 W/m2
02:22 44.6 °F 42.7 °F 29.45 in SSE 6.0 mph 12.0 mph 93 % 0.06 in 0.00 W/m2
02:27 44.5 °F 42.6 °F 29.45 in South 11.0 mph 14.0 mph 93 % 0.04 in 0.00 W/m2
02:32 44.5 °F 42.6 °F 29.45 in SSE 10.0 mph 19.0 mph 93 % 0.00 in 0.00 W/m2
02:37 44.5 °F 42.6 °F 29.45 in SE 8.0 mph 12.0 mph 93 % 0.00 in 0.00 W/m2
02:42 44.4 °F 42.5 °F 29.45 in SSE 10.0 mph 15.0 mph 93 % 0.00 in 0.00 W/m2
02:47 44.4 °F 42.5 °F 29.45 in SSE 6.0 mph 10.0 mph 93 % 0.00 in 0.00 W/m2
02:52 44.4 °F 42.5 °F 29.46 in South 6.0 mph 14.0 mph 93 % 0.00 in 0.00 W/m2
02:57 44.4 °F 42.5 °F 29.46 in SE 2.0 mph 18.0 mph 93 % 0.00 in 0.00 W/m2
03:02 44.5 °F 42.6 °F 29.46 in SSE 9.0 mph 14.0 mph 93 % 0.00 in 0.00 W/m2
03:07 44.5 °F 42.6 °F 29.46 in South 11.0 mph 11.0 mph 93 % 0.00 in 0.00 W/m2
03:12 44.5 °F 42.6 °F 29.46 in SSE 9.0 mph 17.0 mph 93 % 0.00 in 0.00 W/m2
03:17 44.5 °F 42.6 °F 29.46 in SSE 4.0 mph 12.0 mph 93 % 0.00 in 0.00 W/m2
03:22 44.5 °F 42.6 °F 29.46 in SSE 6.0 mph 11.0 mph 93 % 0.00 in 0.00 W/m2
03:27 44.5 °F 42.6 °F 29.46 in SE 10.0 mph 14.0 mph 93 % 0.00 in 0.00 W/m2
03:32 44.5 °F 42.6 °F 29.47 in SSE 13.0 mph 13.0 mph 93 % 0.00 in 0.00 W/m2
03:37 44.5 °F 42.6 °F 29.47 in SSE 7.0 mph 11.0 mph 93 % 0.00 in 0.00 W/m2
03:42 44.5 °F 42.6 °F 29.47 in SSE 7.0 mph 12.0 mph 93 % 0.00 in 0.00 W/m2
03:47 44.5 °F 42.6 °F 29.47 in SE 13.0 mph 19.0 mph 93 % 0.00 in 0.00 W/m2
03:52 44.5 °F 42.6 °F 29.47 in SSE 12.0 mph 15.0 mph 93 % 0.00 in 0.00 W/m2
03:57 44.5 °F 42.6 °F 29.47 in SE 5.0 mph 12.0 mph 93 % 0.00 in 0.00 W/m2
04:03 44.5 °F 42.6 °F 29.47 in SE 13.0 mph 15.0 mph 93 % 0.00 in 0.00 W/m2
04:08 44.5 °F 42.6 °F 29.47 in SSE 6.0 mph 12.0 mph 93 % 0.00 in 0.00 W/m2
04:13 44.5 °F 42.6 °F 29.47 in SE 12.0 mph 13.0 mph 93 % 0.00 in 0.00 W/m2
04:18 44.5 °F 42.6 °F 29.47 in SSE 6.0 mph 12.0 mph 93 % 0.00 in 0.00 W/m2
04:23 44.6 °F 42.7 °F 29.47 in SSE 2.0 mph 12.0 mph 93 % 0.00 in 0.00 W/m2
04:28 44.5 °F 42.6 °F 29.48 in SSE 6.0 mph 13.0 mph 93 % 0.00 in 0.00 W/m2
04:33 44.5 °F 42.6 °F 29.48 in SSE 9.0 mph 10.0 mph 93 % 0.00 in 0.00 W/m2
04:38 44.5 °F 42.6 °F 29.48 in SSE 11.0 mph 14.0 mph 93 % 0.00 in 0.00 W/m2
04:43 44.5 °F 42.6 °F 29.49 in SE 7.0 mph 9.0 mph 93 % 0.00 in 0.00 W/m2
04:48 44.6 °F 42.7 °F 29.49 in SE 6.0 mph 8.0 mph 93 % 0.00 in 0.00 W/m2
04:53 44.5 °F 42.6 °F 29.49 in SE 4.0 mph 9.0 mph 93 % 0.00 in 0.00 W/m2
04:58 44.6 °F 42.7 °F 29.49 in SSE 7.0 mph 9.0 mph 93 % 0.00 in 0.00 W/m2
05:03 44.5 °F 42.6 °F 29.49 in SSE 6.0 mph 9.0 mph 93 % 0.00 in 0.00 W/m2
05:08 44.5 °F 42.6 °F 29.49 in SSE 4.0 mph 10.0 mph 93 % 0.00 in 0.00 W/m2
05:13 44.5 °F 42.6 °F 29.50 in SSE 10.0 mph 12.0 mph 93 % 0.00 in 0.00 W/m2
05:18 44.5 °F 42.6 °F 29.50 in SE 2.0 mph 15.0 mph 93 % 0.00 in 0.00 W/m2
05:23 44.5 °F 42.6 °F 29.50 in SSE 6.0 mph 10.0 mph 93 % 0.00 in 0.00 W/m2
05:28 44.5 °F 42.6 °F 29.50 in SE 5.0 mph 12.0 mph 93 % 0.00 in 0.00 W/m2
05:33 44.5 °F 42.6 °F 29.50 in SSE 2.0 mph 10.0 mph 93 % 0.00 in 0.00 W/m2
05:38 44.4 °F 42.5 °F 29.50 in SSE 8.0 mph 11.0 mph 93 % 0.00 in 0.00 W/m2
05:48 44.4 °F 42.5 °F 29.51 in Calm   9.0 mph 93 % 0.00 in 0.00 W/m2
05:53 44.4 °F 42.5 °F 29.51 in SSE 10.0 mph 10.0 mph 93 % 0.00 in 0.00 W/m2
05:58 44.4 °F 42.5 °F 29.51 in Calm   13.0 mph 93 % 0.00 in 0.00 W/m2
06:03 44.4 °F 42.5 °F 29.51 in SSE 6.0 mph 12.0 mph 93 % 0.00 in 0.00 W/m2
06:08 44.3 °F 42.4 °F 29.52 in SSE 6.0 mph 10.0 mph 93 % 0.00 in 0.00 W/m2
06:13 44.3 °F 42.4 °F 29.52 in SSE 7.0 mph 9.0 mph 93 % 0.00 in 0.00 W/m2
06:18 44.3 °F 42.4 °F 29.52 in SSE 10.0 mph 10.0 mph 93 % 0.00 in 0.00 W/m2
06:23 44.3 °F 42.4 °F 29.52 in SSE 6.0 mph 12.0 mph 93 % 0.00 in 0.00 W/m2
06:28 44.3 °F 42.4 °F 29.52 in SSE 6.0 mph 10.0 mph 93 % 0.00 in 0.00 W/m2
06:33 44.2 °F 42.3 °F 29.52 in SSE 9.0 mph 9.0 mph 93 % 0.00 in 0.00 W/m2
06:38 44.2 °F 42.3 °F 29.53 in SSE 5.0 mph 8.0 mph 93 % 0.00 in 0.00 W/m2
06:43 44.2 °F 42.3 °F 29.53 in SE 7.0 mph 9.0 mph 93 % 0.00 in 0.00 W/m2
06:53 44.2 °F 42.3 °F 29.53 in SSE 6.0 mph 10.0 mph 93 % 0.00 in 0.00 W/m2
06:58 44.2 °F 42.3 °F 29.54 in South 1.0 mph 12.0 mph 93 % 0.00 in 0.00 W/m2
07:03 44.1 °F 42.2 °F 29.54 in SE 4.0 mph 11.0 mph 93 % 0.00 in 0.00 W/m2
07:08 44.1 °F 42.2 °F 29.54 in SSE 1.0 mph 9.0 mph 93 % 0.00 in 7.00 W/m2
07:13 44.1 °F 42.2 °F 29.54 in SSE 8.0 mph 12.0 mph 93 % 0.00 in 7.00 W/m2
07:18 44.1 °F 42.2 °F 29.55 in SSE 6.0 mph 8.0 mph 93 % 0.00 in 11.00 W/m2
07:23 44.1 °F 42.2 °F 29.55 in Calm   1.0 mph 93 % 0.00 in 14.00 W/m2
07:28 44.0 °F 42.1 °F 29.55 in Calm     93 % 0.00 in 14.00 W/m2
07:33 44.1 °F 42.2 °F 29.55 in SSE 8.0 mph 10.0 mph 93 % 0.00 in 16.00 W/m2
07:38 44.1 °F 42.2 °F 29.55 in SSE 2.0 mph 12.0 mph 93 % 0.00 in 28.00 W/m2
07:43 44.1 °F 42.2 °F 29.55 in SSE 6.0 mph 12.0 mph 93 % 0.00 in 37.00 W/m2
07:48 44.1 °F 42.2 °F 29.55 in SE 9.0 mph 12.0 mph 93 % 0.00 in 47.00 W/m2
07:53 44.1 °F 42.2 °F 29.55 in South 7.0 mph 13.0 mph 93 % 0.00 in 47.00 W/m2
07:58 44.1 °F 42.2 °F 29.56 in SSE 8.0 mph 11.0 mph 93 % 0.00 in 53.00 W/m2
08:03 44.2 °F 42.3 °F 29.56 in SSE 8.0 mph 10.0 mph 93 % 0.00 in 69.00 W/m2
08:08 44.2 °F 42.3 °F 29.56 in SSE 4.0 mph 12.0 mph 93 % 0.00 in 69.00 W/m2
08:13 44.2 °F 42.3 °F 29.56 in SSE 2.0 mph 10.0 mph 93 % 0.00 in 86.00 W/m2
08:18 44.3 °F 42.4 °F 29.56 in SSE 4.0 mph 13.0 mph 93 % 0.00 in 109.00 W/m2
08:23 44.4 °F 42.5 °F 29.56 in SSE 9.0 mph 13.0 mph 93 % 0.00 in 100.00 W/m2
08:28 44.5 °F 42.6 °F 29.57 in SSE 9.0 mph 13.0 mph 93 % 0.00 in 104.00 W/m2
08:33 44.6 °F 42.7 °F 29.57 in SSE 9.0 mph 10.0 mph 93 % 0.00 in 97.00 W/m2
08:38 44.6 °F 42.7 °F 29.57 in Calm   1.0 mph 93 % 0.00 in 90.00 W/m2
08:43 44.7 °F 42.8 °F 29.58 in Calm     93 % 0.00 in 58.00 W/m2
08:48 44.8 °F 42.9 °F 29.58 in Calm     93 % 0.00 in 51.00 W/m2
08:53 44.8 °F 42.9 °F 29.58 in Calm     93 % 0.00 in 63.00 W/m2
08:56 44.9 °F 43.0 °F 29.58 in Calm     93 % 0.00 in 70.00 W/m2
08:57 44.9 °F 43.0 °F 29.58 in Calm     93 % 0.00 in 79.00 W/m2
08:58 44.9 °F 43.0 °F 29.58 in Calm     93 % 0.00 in 84.00 W/m2
09:03 44.9 °F 43.0 °F 29.58 in SSE 9.0 mph 9.0 mph 93 % 0.00 in 77.00 W/m2
09:08 44.9 °F 43.0 °F 29.58 in South 10.0 mph 11.0 mph 93 % 0.00 in 95.00 W/m2
09:13 44.9 °F 43.0 °F 29.59 in South 3.0 mph 11.0 mph 93 % 0.00 in 137.00 W/m2
09:18 45.0 °F 43.1 °F 29.59 in South 9.0 mph 11.0 mph 93 % 0.00 in 127.00 W/m2
09:23 45.1 °F 43.5 °F 29.59 in SSE 5.0 mph 11.0 mph 94 % 0.00 in 93.00 W/m2
09:28 45.1 °F 43.5 °F 29.59 in SSE 7.0 mph 11.0 mph 94 % 0.00 in 88.00 W/m2
09:33 45.1 °F 43.2 °F 29.59 in South 4.0 mph 11.0 mph 93 % 0.00 in 97.00 W/m2
09:38 45.2 °F 43.3 °F 29.59 in South 10.0 mph 14.0 mph 93 % 0.00 in 104.00 W/m2
09:43 45.2 °F 43.3 °F 29.59 in SSE 9.0 mph 12.0 mph 93 % 0.00 in 125.00 W/m2
09:48 45.3 °F 43.4 °F 29.60 in South 7.0 mph 11.0 mph 93 % 0.00 in 102.00 W/m2
09:53 45.3 °F 43.4 °F 29.60 in South 12.0 mph 13.0 mph 93 % 0.00 in 134.00 W/m2
09:54 45.3 °F 43.4 °F 29.60 in South 5.0 mph 13.0 mph 93 % 0.00 in 148.00 W/m2
09:59 45.4 °F 43.5 °F 29.60 in South 5.0 mph 13.0 mph 93 % 0.00 in 104.00 W/m2
10:04 45.4 °F 43.5 °F 29.60 in South 2.0 mph 12.0 mph 93 % 0.00 in 179.00 W/m2
10:09 45.5 °F 43.6 °F 29.60 in South 6.0 mph 11.0 mph 93 % 0.00 in 123.00 W/m2
10:14 45.6 °F 43.7 °F 29.60 in SSW 7.0 mph 12.0 mph 93 % 0.00 in 125.00 W/m2
10:19 45.7 °F 43.8 °F 29.60 in South 14.0 mph 18.0 mph 93 % 0.00 in 107.00 W/m2
10:24 45.7 °F 44.1 °F 29.61 in SSW 4.0 mph 14.0 mph 94 % 0.00 in 98.00 W/m2
10:29 45.7 °F 44.1 °F 29.61 in Calm   9.0 mph 94 % 0.00 in 70.00 W/m2
10:34 45.7 °F 44.1 °F 29.61 in SSW 2.0 mph 11.0 mph 94 % 0.00 in 91.00 W/m2
10:39 45.7 °F 44.1 °F 29.61 in South 3.0 mph 11.0 mph 94 % 0.00 in 62.00 W/m2
10:44 45.6 °F 43.7 °F 29.61 in Calm   11.0 mph 93 % 0.00 in 107.00 W/m2
10:49 45.7 °F 43.8 °F 29.61 in South 1.0 mph 10.0 mph 93 % 0.00 in 76.00 W/m2
10:54 45.7 °F 43.8 °F 29.61 in Calm   11.0 mph 93 % 0.00 in 86.00 W/m2
10:59 45.7 °F 43.8 °F 29.61 in SSW 3.0 mph 10.0 mph 93 % 0.00 in 83.00 W/m2
11:04 45.7 °F 43.8 °F 29.61 in Calm   1.0 mph 93 % 0.00 in 47.00 W/m2
11:09 45.7 °F 43.8 °F 29.61 in Calm     93 % 0.00 in 105.00 W/m2
11:14 45.7 °F 43.8 °F 29.62 in SW 9.0 mph 10.0 mph 93 % 0.00 in 100.00 W/m2
11:19 45.7 °F 43.8 °F 29.62 in Calm   15.0 mph 93 % 0.00 in 109.00 W/m2
11:24 45.7 °F 43.8 °F 29.62 in South 9.0 mph 12.0 mph 93 % 0.00 in 146.00 W/m2
11:29 45.7 °F 43.8 °F 29.62 in SSW 3.0 mph 12.0 mph 93 % 0.00 in 118.00 W/m2
11:34 45.8 °F 43.9 °F 29.62 in South 4.0 mph 11.0 mph 93 % 0.00 in 88.00 W/m2
11:39 45.8 °F 43.9 °F 29.62 in Calm   7.0 mph 93 % 0.00 in 51.00 W/m2
11:44 45.8 °F 43.9 °F 29.62 in Calm   8.0 mph 93 % 0.00 in 93.00 W/m2
11:45 45.8 °F 43.9 °F 29.62 in Calm   8.0 mph 93 % 0.00 in 84.00 W/m2
11:50 45.9 °F 44.0 °F 29.62 in South 6.0 mph 13.0 mph 93 % 0.00 in 105.00 W/m2
11:55 45.9 °F 44.0 °F 29.62 in South 9.0 mph 13.0 mph 93 % 0.00 in 100.00 W/m2
12:00 45.9 °F 44.0 °F 29.61 in South 9.0 mph 9.0 mph 93 % 0.00 in 76.00 W/m2
12:05 45.9 °F 44.0 °F 29.61 in Calm   8.0 mph 93 % 0.41 in 53.00 W/m2
12:10 46.0 °F 44.1 °F 29.61 in Calm   7.0 mph 93 % 0.12 in 60.00 W/m2
12:15 46.0 °F 44.1 °F 29.61 in Calm   1.0 mph 93 % 0.12 in 167.00 W/m2
12:20 46.1 °F 44.2 °F 29.61 in South 8.0 mph 10.0 mph 93 % 0.06 in 276.00 W/m2
12:25 46.2 °F 44.3 °F 29.61 in South 7.0 mph 12.0 mph 93 % 0.04 in 334.00 W/m2
12:30 46.3 °F 44.4 °F 29.61 in South 4.0 mph 15.0 mph 93 % 0.00 in 257.00 W/m2
12:35 46.4 °F 44.5 °F 29.61 in South 9.0 mph 17.0 mph 93 % 0.00 in 380.00 W/m2
12:40 46.5 °F 44.6 °F 29.61 in SSE 9.0 mph 13.0 mph 93 % 0.00 in 339.00 W/m2
12:45 46.6 °F 44.7 °F 29.61 in SSE 8.0 mph 14.0 mph 93 % 0.00 in 499.00 W/m2
12:50 46.8 °F 44.9 °F 29.61 in South 9.0 mph 13.0 mph 93 % 0.00 in 357.00 W/m2
12:55 47.1 °F 45.5 °F 29.60 in South 6.0 mph 12.0 mph 94 % 0.00 in 299.00 W/m2
13:00 47.2 °F 45.6 °F 29.60 in SSE 5.0 mph 11.0 mph 94 % 0.00 in 163.00 W/m2
13:05 47.4 °F 45.5 °F 29.60 in South 5.0 mph 11.0 mph 93 % 0.00 in 192.00 W/m2
13:20 47.4 °F 45.5 °F 29.60 in SSE 8.0 mph 11.0 mph 93 % 0.00 in 51.00 W/m2
13:25 47.3 °F 45.4 °F 29.60 in Calm   2.0 mph 93 % 0.00 in 25.00 W/m2
13:30 47.2 °F 45.3 °F 29.60 in Calm     93 % 0.00 in 21.00 W/m2
13:35 47.2 °F 45.3 °F 29.60 in Calm     93 % 0.00 in 30.00 W/m2
13:36 47.1 °F 45.2 °F 29.60 in Calm     93 % 0.00 in 26.00 W/m2
13:41 47.0 °F 45.1 °F 29.60 in Calm     93 % 0.00 in 25.00 W/m2
13:46 46.9 °F 45.3 °F 29.60 in Calm   6.0 mph 94 % 0.00 in 44.00 W/m2
13:51 46.8 °F 44.9 °F 29.60 in Calm     93 % 0.00 in 21.00 W/m2
13:56 46.8 °F 44.9 °F 29.60 in Calm     93 % 0.00 in 14.00 W/m2
14:01 46.7 °F 44.8 °F 29.61 in Calm   1.0 mph 93 % 0.00 in 47.00 W/m2
14:06 46.7 °F 44.8 °F 29.61 in Calm   9.0 mph 93 % 0.00 in 28.00 W/m2
14:11 46.6 °F 44.7 °F 29.61 in Calm   1.0 mph 93 % 0.00 in 62.00 W/m2
14:16 46.7 °F 44.8 °F 29.61 in Calm   1.0 mph 93 % 0.00 in 113.00 W/m2
14:21 46.7 °F 44.8 °F 29.60 in Calm   1.0 mph 93 % 0.00 in 237.00 W/m2
14:26 46.8 °F 44.9 °F 29.60 in SW 2.0 mph 11.0 mph 93 % 0.00 in 192.00 W/m2
14:31 46.9 °F 45.0 °F 29.60 in SW 5.0 mph 12.0 mph 93 % 0.00 in 162.00 W/m2
14:36 46.9 °F 45.0 °F 29.60 in Calm   5.0 mph 93 % 0.00 in 114.00 W/m2
14:41 47.0 °F 45.1 °F 29.61 in SSW 2.0 mph 11.0 mph 93 % 0.00 in 74.00 W/m2
14:46 47.0 °F 45.1 °F 29.61 in Calm   7.0 mph 93 % 0.00 in 79.00 W/m2
14:51 47.1 °F 45.2 °F 29.61 in Calm   8.0 mph 93 % 0.00 in 123.00 W/m2
14:56 47.2 °F 45.3 °F 29.61 in Calm   1.0 mph 93 % 0.00 in 267.00 W/m2
15:01 47.2 °F 45.3 °F 29.61 in South 4.0 mph 13.0 mph 93 % 0.00 in 246.00 W/m2
15:06 47.1 °F 45.2 °F 29.61 in South 3.0 mph 9.0 mph 93 % 0.00 in 156.00 W/m2
15:11 47.2 °F 45.3 °F 29.61 in Calm     93 % 0.00 in 93.00 W/m2
15:16 47.3 °F 45.4 °F 29.61 in Calm     93 % 0.00 in 120.00 W/m2
15:21 47.3 °F 45.4 °F 29.61 in Calm   2.0 mph 93 % 0.00 in 86.00 W/m2
15:26 47.3 °F 45.4 °F 29.62 in SW 6.0 mph 6.0 mph 93 % 0.00 in 223.00 W/m2
15:31 47.3 °F 45.4 °F 29.62 in SSW 3.0 mph 5.0 mph 93 % 0.00 in 139.00 W/m2
15:36 47.3 °F 45.4 °F 29.62 in Calm     93 % 0.00 in 91.00 W/m2
15:41 47.2 °F 45.3 °F 29.62 in SW 7.0 mph 11.0 mph 93 % 0.00 in 153.00 W/m2
15:46 47.2 °F 45.3 °F 29.62 in Calm     93 % 0.00 in 76.00 W/m2
15:51 47.2 °F 45.3 °F 29.61 in South 7.0 mph 7.0 mph 93 % 0.00 in 67.00 W/m2
15:56 47.2 °F 45.3 °F 29.61 in Calm     93 % 0.00 in 42.00 W/m2
16:01 47.2 °F 45.3 °F 29.62 in Calm     93 % 0.00 in 60.00 W/m2
16:06 47.2 °F 45.3 °F 29.62 in Calm     93 % 0.00 in 176.00 W/m2
16:11 47.2 °F 45.3 °F 29.62 in SW 4.0 mph 7.0 mph 93 % 0.00 in 69.00 W/m2
16:16 47.2 °F 45.3 °F 29.62 in Calm     93 % 0.00 in 62.00 W/m2
16:21 47.3 °F 45.4 °F 29.63 in WSW 3.0 mph 8.0 mph 93 % 0.00 in 18.00 W/m2
16:26 47.2 °F 45.6 °F 29.62 in SSW 1.0 mph 1.0 mph 94 % 0.00 in 32.00 W/m2
16:31 47.1 °F 45.5 °F 29.63 in SSW 6.0 mph 9.0 mph 94 % 0.00 in 47.00 W/m2
16:36 47.0 °F 45.1 °F 29.63 in South 3.0 mph 9.0 mph 93 % 0.00 in 23.00 W/m2
16:41 46.9 °F 45.3 °F 29.63 in South 8.0 mph 10.0 mph 94 % 0.00 in 46.00 W/m2
16:46 46.8 °F 45.2 °F 29.63 in SSW 7.0 mph 8.0 mph 94 % 0.00 in 23.00 W/m2
16:51 46.8 °F 45.2 °F 29.63 in Calm   2.0 mph 94 % 0.00 in 23.00 W/m2
16:56 46.7 °F 45.1 °F 29.63 in Calm     94 % 0.00 in 5.00 W/m2
17:01 46.6 °F 45.0 °F 29.64 in SW 16.0 mph 16.0 mph 94 % 0.00 in 5.00 W/m2
17:06 46.5 °F 44.9 °F 29.64 in SSE 12.0 mph 13.0 mph 94 % 0.00 in 11.00 W/m2
17:11 46.4 °F 44.8 °F 29.64 in SSW 8.0 mph 8.0 mph 94 % 0.00 in 12.00 W/m2
17:21 46.3 °F 44.7 °F 29.65 in Calm   5.0 mph 94 % 0.00 in 9.00 W/m2
17:26 46.2 °F 44.6 °F 29.64 in SSW 11.0 mph 15.0 mph 94 % 0.00 in 11.00 W/m2
17:31 46.1 °F 44.5 °F 29.64 in SSW 4.0 mph 7.0 mph 94 % 0.00 in 0.00 W/m2
17:36 46.1 °F 44.5 °F 29.64 in SSW 3.0 mph 9.0 mph 94 % 0.00 in 0.00 W/m2
17:41 46.0 °F 44.4 °F 29.64 in SW 2.0 mph 7.0 mph 94 % 0.00 in 0.00 W/m2
17:46 46.0 °F 44.4 °F 29.64 in SW 1.0 mph 1.0 mph 94 % 0.00 in 0.00 W/m2
17:51 46.0 °F 44.4 °F 29.64 in SSW 2.0 mph 2.0 mph 94 % 0.00 in 0.00 W/m2
17:56 45.9 °F 44.3 °F 29.65 in SSW 3.0 mph 8.0 mph 94 % 0.00 in 0.00 W/m2
18:01 45.9 °F 44.3 °F 29.65 in SW 8.0 mph 12.0 mph 94 % 0.00 in 0.00 W/m2
18:06 45.8 °F 43.9 °F 29.65 in SW 9.0 mph 11.0 mph 93 % 0.00 in 0.00 W/m2
18:11 45.8 °F 44.2 °F 29.65 in SW 9.0 mph 9.0 mph 94 % 0.00 in 0.00 W/m2
18:16 45.7 °F 44.1 °F 29.66 in SW 7.0 mph 8.0 mph 94 % 0.00 in 0.00 W/m2
18:21 45.7 °F 44.1 °F 29.66 in SSW 2.0 mph 4.0 mph 94 % 0.00 in 0.00 W/m2
18:26 45.6 °F 43.7 °F 29.67 in SSW 2.0 mph 9.0 mph 93 % 0.00 in 0.00 W/m2
18:31 45.6 °F 43.7 °F 29.67 in SSW 5.0 mph 8.0 mph 93 % 0.00 in 0.00 W/m2
18:36 45.5 °F 43.6 °F 29.67 in SSW 2.0 mph 10.0 mph 93 % 0.00 in 0.00 W/m2
18:41 45.4 °F 43.5 °F 29.67 in SSW 2.0 mph 7.0 mph 93 % 0.00 in 0.00 W/m2
18:47 45.4 °F 43.5 °F 29.68 in Calm   6.0 mph 93 % 0.00 in 0.00 W/m2
18:52 45.3 °F 43.7 °F 29.68 in SW 6.0 mph 8.0 mph 94 % 0.00 in 0.00 W/m2
18:57 45.2 °F 43.6 °F 29.68 in South 9.0 mph 9.0 mph 94 % 0.00 in 0.00 W/m2
19:02 45.2 °F 43.3 °F 29.68 in WSW 3.0 mph 15.0 mph 93 % 0.00 in 0.00 W/m2
19:07 45.1 °F 43.2 °F 29.69 in SSW 7.0 mph 11.0 mph 93 % 0.00 in 0.00 W/m2
19:12 45.0 °F 43.1 °F 29.69 in WSW 10.0 mph 10.0 mph 93 % 0.00 in 0.00 W/m2
19:17 44.9 °F 43.0 °F 29.69 in Calm   7.0 mph 93 % 0.00 in 0.00 W/m2
19:23 44.8 °F 42.9 °F 29.70 in SSW 14.0 mph 14.0 mph 93 % 0.00 in 0.00 W/m2
19:33 44.6 °F 43.0 °F 29.70 in Calm   17.0 mph 94 % 0.00 in 0.00 W/m2
19:38 44.5 °F 42.6 °F 29.71 in Calm   11.0 mph 93 % 0.00 in 0.00 W/m2
19:43 44.3 °F 42.4 °F 29.71 in SSE 8.0 mph 10.0 mph 93 % 0.00 in 0.00 W/m2
19:48 44.2 °F 42.3 °F 29.71 in South 7.0 mph 11.0 mph 93 % 0.00 in 0.00 W/m2
19:53 44.1 °F 42.5 °F 29.71 in Calm   9.0 mph 94 % 0.00 in 0.00 W/m2
19:58 44.1 °F 42.5 °F 29.72 in Calm   10.0 mph 94 % 0.00 in 0.00 W/m2
20:03 43.9 °F 42.3 °F 29.72 in South 8.0 mph 14.0 mph 94 % 0.00 in 0.00 W/m2
20:08 43.8 °F 41.9 °F 29.72 in SSE 4.0 mph 8.0 mph 93 % 0.00 in 0.00 W/m2
20:13 43.7 °F 41.8 °F 29.72 in South 7.0 mph 9.0 mph 93 % 0.00 in 0.00 W/m2
20:18 43.7 °F 41.8 °F 29.72 in SSE 2.0 mph 12.0 mph 93 % 0.00 in 0.00 W/m2
20:23 43.6 °F 41.7 °F 29.73 in SSW 8.0 mph 12.0 mph 93 % 0.00 in 0.00 W/m2
20:28 43.6 °F 41.7 °F 29.72 in SSE 8.0 mph 13.0 mph 93 % 0.00 in 0.00 W/m2
20:33 43.5 °F 41.6 °F 29.73 in SSE 9.0 mph 11.0 mph 93 % 0.00 in 0.00 W/m2
20:38 43.4 °F 41.5 °F 29.73 in SSE 10.0 mph 14.0 mph 93 % 0.00 in 0.00 W/m2
20:43 43.4 °F 41.5 °F 29.73 in South 2.0 mph 10.0 mph 93 % 0.00 in 0.00 W/m2
20:48 43.3 °F 41.4 °F 29.74 in South 9.0 mph 9.0 mph 93 % 0.00 in 0.00 W/m2
20:53 43.3 °F 41.4 °F 29.74 in South 12.0 mph 12.0 mph 93 % 0.00 in 0.00 W/m2
20:58 43.3 °F 41.4 °F 29.74 in South 12.0 mph 16.0 mph 93 % 0.00 in 0.00 W/m2
21:03 43.3 °F 41.4 °F 29.75 in South 10.0 mph 11.0 mph 93 % 0.00 in 0.00 W/m2
21:08 43.3 °F 41.4 °F 29.75 in SSW 14.0 mph 19.0 mph 93 % 0.00 in 0.00 W/m2
21:13 43.2 °F 41.3 °F 29.74 in South 9.0 mph 12.0 mph 93 % 0.00 in 0.00 W/m2
21:18 43.2 °F 41.3 °F 29.74 in SSE 5.0 mph 11.0 mph 93 % 0.00 in 0.00 W/m2
21:23 43.2 °F 41.3 °F 29.74 in SSE 11.0 mph 13.0 mph 93 % 0.00 in 0.00 W/m2
21:28 43.2 °F 41.3 °F 29.74 in South 14.0 mph 17.0 mph 93 % 0.00 in 0.00 W/m2
21:33 43.1 °F 41.2 °F 29.74 in SSE 7.0 mph 10.0 mph 93 % 0.00 in 0.00 W/m2
21:38 43.0 °F 41.1 °F 29.74 in SSE 8.0 mph 17.0 mph 93 % 0.00 in 0.00 W/m2
21:43 42.9 °F 41.0 °F 29.74 in SSE 7.0 mph 14.0 mph 93 % 0.00 in 0.00 W/m2
21:48 42.9 °F 41.0 °F 29.75 in SSE 7.0 mph 13.0 mph 93 % 0.00 in 0.00 W/m2
21:53 42.9 °F 41.0 °F 29.75 in SSE 11.0 mph 13.0 mph 93 % 0.00 in 0.00 W/m2
21:58 42.8 °F 40.9 °F 29.75 in SSE 11.0 mph 13.0 mph 93 % 0.00 in 0.00 W/m2
22:03 42.7 °F 40.8 °F 29.76 in South 7.0 mph 13.0 mph 93 % 0.00 in 0.00 W/m2
22:08 42.6 °F 40.7 °F 29.77 in SSE 8.0 mph 9.0 mph 93 % 0.00 in 0.00 W/m2
22:13 42.5 °F 40.9 °F 29.77 in South 8.0 mph 10.0 mph 94 % 0.00 in 0.00 W/m2
22:18 42.5 °F 40.6 °F 29.77 in South 7.0 mph 13.0 mph 93 % 0.00 in 0.00 W/m2
22:23 42.4 °F 40.5 °F 29.77 in SSE 7.0 mph 12.0 mph 93 % 0.00 in 0.00 W/m2
22:28 42.2 °F 40.3 °F 29.77 in South 10.0 mph 13.0 mph 93 % 0.00 in 0.00 W/m2
22:33 42.2 °F 40.3 °F 29.77 in SSE 2.0 mph 14.0 mph 93 % 0.00 in 0.00 W/m2
22:38 42.0 °F 40.4 °F 29.77 in South 9.0 mph 12.0 mph 94 % 0.00 in 0.00 W/m2
22:43 42.0 °F 40.1 °F 29.77 in South 9.0 mph 17.0 mph 93 % 0.00 in 0.00 W/m2
22:48 41.8 °F 39.9 °F 29.78 in SSE 5.0 mph 13.0 mph 93 % 0.00 in 0.00 W/m2
22:53 41.7 °F 39.8 °F 29.77 in SSE 9.0 mph 12.0 mph 93 % 0.00 in 0.00 W/m2
22:58 41.5 °F 39.9 °F 29.77 in SSE 7.0 mph 19.0 mph 94 % 0.00 in 0.00 W/m2
23:03 41.4 °F 39.8 °F 29.77 in SE 18.0 mph 18.0 mph 94 % 0.00 in 0.00 W/m2
23:08 41.2 °F 39.3 °F 29.77 in SSE 9.0 mph 17.0 mph 93 % 0.00 in 0.00 W/m2
23:13 41.1 °F 39.2 °F 29.77 in SSE 6.0 mph 18.0 mph 93 % 0.00 in 0.00 W/m2
23:18 40.9 °F 39.3 °F 29.77 in SSE 8.0 mph 20.0 mph 94 % 0.00 in 0.00 W/m2
23:23 40.8 °F 39.2 °F 29.77 in SSE 9.0 mph 18.0 mph 94 % 0.00 in 0.00 W/m2
23:28 40.7 °F 38.8 °F 29.77 in SSE 7.0 mph 13.0 mph 93 % 0.00 in 0.00 W/m2
23:33 40.6 °F 38.7 °F 29.78 in SSE 11.0 mph 14.0 mph 93 % 0.00 in 0.00 W/m2
23:38 40.5 °F 38.6 °F 29.78 in SE 11.0 mph 18.0 mph 93 % 0.00 in 0.00 W/m2
23:43 40.5 °F 38.9 °F 29.78 in SSE 6.0 mph 14.0 mph 94 % 0.00 in 0.00 W/m2
23:48 40.4 °F 38.8 °F 29.78 in South 13.0 mph 14.0 mph 94 % 0.00 in 0.00 W/m2
23:53 40.4 °F 38.8 °F 29.78 in SSE 13.0 mph 16.0 mph 94 % 0.00 in 0.00 W/m2
23:58 40.3 °F 38.7 °F 29.77 in South 13.0 mph 18.0 mph 94 % 0.00 in 0.00 W/m2
Juneau County Weather
Compliments of Weather Underground - 4.5 mb
 WU-history PHP script courtesy of   Juneau County Weather.
powered by Cumulus v1.9.3 (1059)
Ambient Weather VWS v14.00
Top Contact Website Map Copyright © 2007 - 2018 Foresthillweather.com Never base important decisions on this or any weather information obtained from the Internet